| time (UTC) | temp C | wind direction | speed KPH | gust KPH | rain 1hr cm | rain 24hr cm | rain mn cm | humidity % | barometer mb |
| 20260510153104 | 22 | 314 | 1.6 | 19.3 | 0.00 | 0.58 | 0.00 | ||
| 20260510152104 | 22 | 310 | 4.8 | 20.9 | 0.00 | 0.61 | 0.00 | ||
| 20260510151605 | 23 | 282 | 3.2 | 19.3 | 0.00 | 0.61 | 0.00 | ||
| 20260510151104 | 21 | 332 | 3.2 | 14.5 | 0.00 | 0.61 | 0.00 | ||
| 20260510150604 | 22 | 355 | 4.8 | 14.5 | 0.00 | 0.61 | 0.00 | ||
| 20260510145604 | 21 | 288 | 3.2 | 12.9 | 0.00 | 0.61 | 0.00 | ||
| 20260510144605 | 20 | 295 | 3.2 | 12.9 | 0.00 | 0.61 | 0.00 | ||
| 20260510142104 | 18 | 271 | 1.6 | 9.7 | 0.00 | 0.61 | 0.00 | ||
| 20260510141603 | 19 | 304 | 1.6 | 9.7 | 0.00 | 0.61 | 0.00 | ||
| 20260510140603 | 18 | 285 | 3.2 | 4.8 | 0.00 | 0.61 | 0.00 | ||
| 20260510135604 | 17 | 244 | 3.2 | 4.8 | 0.00 | 0.61 | 0.00 | ||
| 20260510135104 | 17 | 30 | 1.6 | 8.0 | 0.00 | 0.61 | 0.00 | ||
| 20260510134604 | 16 | 231 | 3.2 | 8.0 | 0.00 | 0.61 | 0.00 | ||
| 20260510131604 | 14 | 231 | 1.6 | 4.8 | 0.00 | 0.61 | 0.00 | ||
| 20260510130604 | 14 | 283 | 1.6 | 4.8 | 0.00 | 0.61 | 0.00 | ||
| 20260510125604 | 13 | 274 | 1.6 | 4.8 | 0.00 | 0.61 | 0.00 | ||
| 20260510124604 | 13 | 342 | 1.6 | 4.8 | 0.00 | 0.61 | 0.00 | ||
| 20260510121104 | 12 | 4 | 0.0 | 1.6 | 0.00 | 0.61 | 0.00 | ||
| 20260510120604 | 12 | 4 | 0.0 | 0.0 | 0.00 | 0.61 | 0.00 | ||
| 20260510120104 | 12 | 4 | 0.0 | 0.0 | 0.00 | 0.61 | 0.00 | ||
| 20260510115604 | 11 | 4 | 0.0 | 1.6 | 0.00 | 0.61 | 0.00 | ||
| 20260510115104 | 11 | 4 | 1.6 | 1.6 | 0.00 | 0.64 | 0.00 | ||
| 20260510114104 | 11 | 4 | 0.0 | 1.6 | 0.00 | 0.64 | 0.00 | ||
| 20260510113604 | 11 | 4 | 0.0 | 3.2 | 0.00 | 0.64 | 0.00 | ||
| 20260510112604 | 11 | 4 | 1.6 | 3.2 | 0.00 | 0.64 | 0.00 | ||
| 20260510112104 | 11 | 0 | 1.6 | 3.2 | 0.00 | 0.64 | 0.00 | ||
| 20260510105104 | 10 | 46 | 1.6 | 3.2 | 0.00 | 0.64 | 0.00 | ||
| 20260510104604 | 10 | 47 | 0.0 | 0.0 | 0.00 | 0.64 | 0.00 | ||
| 20260510104104 | 10 | 47 | 0.0 | 0.0 | 0.00 | 0.64 | 0.00 | ||
| 20260510102103 | 10 | 46 | 0.0 | 1.6 | 0.00 | 0.64 | 0.00 | ||
| 20260510101104 | 10 | 47 | 0.0 | 3.2 | 0.00 | 0.64 | 0.00 | ||
| 20260510095603 | 9 | 21 | 0.0 | 3.2 | 0.00 | 0.64 | 0.00 | ||
| 20260510095104 | 9 | 330 | 0.0 | 3.2 | 0.00 | 0.64 | 0.00 | ||
| 20260510092603 | 9 | 290 | 0.0 | 3.2 | 0.00 | 0.64 | 0.00 | ||
| 20260510092103 | 9 | 290 | 1.6 | 3.2 | 0.00 | 0.64 | 0.00 | ||
| 20260510091604 | 9 | 191 | 1.6 | 4.8 | 0.00 | 0.64 | 0.00 | ||
| 20260510090604 | 9 | 190 | 0.0 | 4.8 | 0.00 | 0.64 | 0.00 | ||
| 20260510085104 | 8 | 180 | 3.2 | 4.8 | 0.00 | 0.64 | 0.00 | ||
| 20260510082104 | 9 | 176 | 1.6 | 3.2 | 0.00 | 0.64 | 0.00 | ||
| 20260510081604 | 9 | 249 | 0.0 | 1.6 | 0.00 | 0.64 | 0.00 | ||
| 20260510075604 | 9 | 191 | 1.6 | 3.2 | 0.00 | 0.64 | 0.00 | ||
| 20260510075104 | 9 | 206 | 1.6 | 3.2 | 0.00 | 0.64 | 0.00 | ||
| 20260510074604 | 9 | 172 | 1.6 | 3.2 | 0.00 | 0.64 | 0.00 | ||
| 20260510073604 | 8 | 255 | 1.6 | 3.2 | 0.00 | 0.66 | 0.00 | ||
| 20260510072604 | 8 | 293 | 0.0 | 3.2 | 0.00 | 0.66 | 0.00 | ||
| 20260510070604 | 8 | 351 | 0.0 | 3.2 | 0.00 | 0.71 | 0.00 | ||
| 20260510065104 | 7 | 314 | 0.0 | 1.6 | 0.00 | 0.76 | 0.00 | ||
| 20260510064604 | 7 | 314 | 0.0 | 3.2 | 0.00 | 0.76 | 0.00 | ||
| 20260510063604 | 7 | 261 | 0.0 | 0.0 | 0.00 | 0.76 | 0.00 | ||
| 20260510062603 | 7 | 261 | 0.0 | 0.0 | 0.00 | 0.76 | 0.00 | ||
| 20260510060604 | 7 | 261 | 0.0 | 1.6 | 0.00 | 0.79 | 0.00 | ||
| 20260510054604 | 6 | 262 | 0.0 | 1.6 | 0.00 | 0.79 | 0.00 | ||
| 20260510054104 | 6 | 262 | 0.0 | 1.6 | 0.00 | 0.79 | 0.00 | ||
| 20260510050603 | 6 | 261 | 0.0 | 0.0 | 0.00 | 0.79 | 0.00 | ||
| 20260510050104 | 6 | 262 | 0.0 | 0.0 | 0.00 | 0.79 | 0.00 | ||
| 20260510045604 | 6 | 262 | 0.0 | 1.6 | 0.00 | 0.79 | 0.00 | ||
| 20260510044604 | 6 | 261 | 0.0 | 0.0 | 0.00 | 0.79 | 0.00 | ||
| 20260510044104 | 6 | 262 | 0.0 | 0.0 | 0.00 | 0.79 | 0.00 | ||
| 20260510042604 | 6 | 261 | 0.0 | 0.0 | 0.00 | 0.79 | 0.00 | ||
| 20260510041603 | 6 | 261 | 0.0 | 0.0 | 0.00 | 0.79 | 0.00 | ||
| 20260510040603 | 7 | 262 | 0.0 | 0.0 | 0.00 | 0.79 | 0.00 | ||
| 20260510040104 | 7 | 262 | 0.0 | 0.0 | 0.00 | 0.79 | 0.00 | ||
| 20260510034604 | 7 | 262 | 0.0 | 1.6 | 0.00 | 0.79 | 0.79 | ||
| 20260510034104 | 7 | 261 | 0.0 | 0.0 | 0.00 | 0.79 | 0.79 | ||
| 20260510033604 | 7 | 262 | 0.0 | 0.0 | 0.00 | 0.79 | 0.79 | ||
| 20260510033104 | 7 | 262 | 0.0 | 0.0 | 0.00 | 0.79 | 0.79 | ||
| 20260510030604 | 7 | 262 | 0.0 | 1.6 | 0.00 | 0.79 | 0.79 | ||
| 20260510030104 | 7 | 261 | 0.0 | 1.6 | 0.00 | 0.79 | 0.79 | ||
| 20260510022605 | 8 | 262 | 0.0 | 3.2 | 0.00 | 0.79 | 0.79 | ||
| 20260510021104 | 8 | 261 | 0.0 | 0.0 | 0.00 | 0.79 | 0.79 | ||
| 20260510020105 | 8 | 261 | 0.0 | 3.2 | 0.00 | 0.79 | 0.79 | ||
| 20260510015104 | 8 | 261 | 0.0 | 3.2 | 0.00 | 0.79 | 0.79 | ||
| 20260510014604 | 8 | 261 | 0.0 | 1.6 | 0.00 | 0.79 | 0.79 | ||
| 20260510013604 | 9 | 261 | 0.0 | 3.2 | 0.00 | 0.79 | 0.79 | ||
| 20260510011104 | 10 | 269 | 0.0 | 3.2 | 0.00 | 0.79 | 0.79 | ||
| 20260510010604 | 10 | 264 | 0.0 | 3.2 | 0.00 | 0.79 | 0.79 | ||
| 20260510010104 | 10 | 264 | 0.0 | 3.2 | 0.00 | 0.79 | 0.79 | ||
| 20260510005604 | 10 | 264 | 1.6 | 3.2 | 0.00 | 0.79 | 0.79 | ||
| 20260510004104 | 10 | 203 | 1.6 | 8.0 | 0.00 | 0.79 | 0.79 | ||
| 20260510003604 | 11 | 181 | 3.2 | 8.0 | 0.00 | 0.79 | 0.79 | ||
| 20260510002104 | 11 | 150 | 3.2 | 8.0 | 0.00 | 0.79 | 0.79 | ||
| 20260510001604 | 11 | 160 | 4.8 | 14.5 | 0.00 | 0.79 | 0.79 | ||
| 20260510001104 | 11 | 210 | 1.6 | 14.5 | 0.00 | 0.79 | 0.79 | ||
| 20260510000604 | 11 | 216 | 3.2 | 11.3 | 0.00 | 0.79 | 0.79 | ||
| 20260510000105 | 11 | 158 | 3.2 | 9.7 | 0.00 | 0.79 | 0.79 | ||
| 20260509235605 | 11 | 146 | 3.2 | 8.0 | 0.00 | 0.79 | 0.79 | ||
| 20260509233604 | 12 | 179 | 3.2 | 9.7 | 0.00 | 0.97 | 0.79 | ||
| 20260509233104 | 12 | 228 | 4.8 | 11.3 | 0.00 | 0.97 | 0.79 | ||
| 20260509232604 | 12 | 204 | 3.2 | 11.3 | 0.00 | 0.97 | 0.79 | ||
| 20260509231605 | 13 | 210 | 3.2 | 9.7 | 0.00 | 0.97 | 0.79 | ||
| 20260509231104 | 13 | 210 | 3.2 | 8.0 | 0.00 | 0.97 | 0.79 | ||
| 20260509230104 | 13 | 208 | 3.2 | 4.8 | 0.00 | 0.97 | 0.79 | ||
| 20260509225604 | 13 | 165 | 1.6 | 4.8 | 0.00 | 0.97 | 0.79 | ||
| 20260509225104 | 13 | 186 | 1.6 | 4.8 | 0.00 | 0.97 | 0.79 | ||
| 20260509224604 | 13 | 206 | 1.6 | 4.8 | 0.00 | 0.97 | 0.79 | ||
| 20260509224104 | 13 | 211 | 1.6 | 4.8 | 0.00 | 0.97 | 0.79 | ||
| 20260509223104 | 13 | 231 | 1.6 | 3.2 | 0.00 | 0.97 | 0.79 | ||
| 20260509222604 | 13 | 231 | 1.6 | 4.8 | 0.00 | 0.97 | 0.79 | ||
| 20260509221104 | 13 | 185 | 0.0 | 3.2 | 0.03 | 0.97 | 0.79 | ||
| 20260509220604 | 13 | 184 | 1.6 | 4.8 | 0.03 | 0.97 | 0.79 | ||
| 20260509220104 | 13 | 155 | 0.0 | 4.8 | 0.03 | 0.97 | 0.79 | ||
| 20260509212604 | 13 | 207 | 0.0 | 1.6 | 0.13 | 0.97 | 0.79 | ||
| 20260509211604 | 13 | 207 | 0.0 | 4.8 | 0.13 | 0.94 | 0.76 | ||
| 20260509210603 | 13 | 208 | 1.6 | 4.8 | 0.15 | 0.94 | 0.76 | ||
| 20260509210104 | 13 | 215 | 1.6 | 4.8 | 0.15 | 0.94 | 0.76 | ||
| 20260509204603 | 13 | 236 | 1.6 | 4.8 | 0.15 | 0.91 | 0.74 | ||
| 20260509202604 | 13 | 277 | 0.0 | 3.2 | 0.13 | 0.84 | 0.66 | ||
| 20260509201603 | 13 | 257 | 0.0 | 1.6 | 0.10 | 0.81 | 0.64 | ||
| 20260509200604 | 13 | 296 | 0.0 | 1.6 | 0.10 | 0.79 | 0.61 | ||
| 20260509200104 | 13 | 295 | 0.0 | 3.2 | 0.10 | 0.79 | 0.61 | ||
| 20260509194604 | 13 | 242 | 1.6 | 4.8 | 0.15 | 0.76 | 0.58 | ||
| 20260509194104 | 13 | 270 | 0.0 | 4.8 | 0.18 | 0.76 | 0.58 | ||
| 20260509193104 | 13 | 297 | 0.0 | 1.6 | 0.18 | 0.74 | 0.56 | ||
| 20260509192604 | 13 | 297 | 0.0 | 3.2 | 0.18 | 0.71 | 0.53 | ||
| 20260509191604 | 14 | 300 | 1.6 | 9.7 | 0.18 | 0.71 | 0.53 | ||
| 20260509185104 | 14 | 261 | 1.6 | 9.7 | 0.18 | 0.64 | 0.46 | ||
| 20260509184104 | 14 | 328 | 3.2 | 9.7 | 0.15 | 0.58 | 0.41 | ||
| 20260509183604 | 14 | 339 | 1.6 | 9.7 | 0.15 | 0.56 | 0.38 | ||
| 20260509183104 | 15 | 293 | 3.2 | 12.9 | 0.15 | 0.56 | 0.38 | ||
| 20260509181605 | 15 | 312 | 1.6 | 11.3 | 0.13 | 0.53 | 0.36 | ||
| 20260509181105 | 15 | 342 | 1.6 | 11.3 | 0.10 | 0.51 | 0.33 | ||
| 20260509180605 | 14 | 329 | 0.0 | 11.3 | 0.10 | 0.51 | 0.33 | ||
| 20260509180105 | 14 | 308 | 3.2 | 11.3 | 0.10 | 0.51 | 0.33 | ||
| 20260509175604 | 14 | 341 | 1.6 | 4.8 | 0.08 | 0.48 | 0.30 | ||
| 20260509175104 | 13 | 330 | 3.2 | 4.8 | 0.05 | 0.46 | 0.28 | ||
| 20260509173104 | 15 | 1 | 1.6 | 4.8 | 0.00 | 0.41 | 0.23 | ||
| 20260509172605 | 15 | 61 | 1.6 | 4.8 | 0.00 | 0.41 | 0.23 | ||
| 20260509172105 | 15 | 26 | 1.6 | 4.8 | 0.00 | 0.41 | 0.23 | ||
| 20260509171604 | 15 | 55 | 1.6 | 4.8 | 0.00 | 0.41 | 0.23 | ||
| 20260509171104 | 16 | 46 | 3.2 | 3.2 | 0.00 | 0.41 | 0.23 | ||
| 20260509165105 | 15 | 7 | 1.6 | 4.8 | 0.03 | 0.41 | 0.23 | ||
| 20260509163604 | 15 | 210 | 1.6 | 4.8 | 0.03 | 0.41 | 0.23 | ||
| 20260509163104 | 16 | 171 | 0.0 | 4.8 | 0.03 | 0.41 | 0.23 | ||
| 20260509162604 | 16 | 172 | 1.6 | 4.8 | 0.05 | 0.41 | 0.23 | ||
| 20260509162104 | 15 | 145 | 3.2 | 4.8 | 0.05 | 0.41 | 0.23 | ||
| 20260509161606 | 15 | 122 | 1.6 | 4.8 | 0.05 | 0.41 | 0.23 | ||
| 20260509160604 | 15 | 112 | 1.6 | 3.2 | 0.05 | 0.41 | 0.23 | ||
| 20260509155605 | 14 | 185 | 0.0 | 1.6 | 0.03 | 0.38 | 0.20 | ||
| 20260509155104 | 14 | 185 | 1.6 | 4.8 | 0.03 | 0.38 | 0.20 | ||
| 20260509154104 | 14 | 251 | 0.0 | 3.2 | 0.03 | 0.38 | 0.20 |